Temperatura - Umidità - Pioggia orarie del 03-06-2020

Dati orari da stazione meteo del 03-06-2020

Nome Stazione Data Ora Temperatura [°C] Umidità [%] Pioggia [mm] Pressione[hPa]
Sant'Anna di Vinadio 02-06-2020 02:00 7.9 65 0 1020.3
Sant'Anna di Vinadio 02-06-2020 02:10 7.9 65 0 1020.2
Sant'Anna di Vinadio 02-06-2020 02:20 8 63 0 1020.1
Sant'Anna di Vinadio 02-06-2020 02:30 8.1 63 0 1020.1
Sant'Anna di Vinadio 02-06-2020 02:40 8.1 62 0 1020.1
Sant'Anna di Vinadio 02-06-2020 02:50 7.9 63 0 1020.1
Sant'Anna di Vinadio 02-06-2020 03:00 7.8 64 0 1020
Sant'Anna di Vinadio 02-06-2020 03:10 7.7 65 0 1020
Sant'Anna di Vinadio 02-06-2020 03:20 7.6 65 0 1020
Sant'Anna di Vinadio 02-06-2020 03:30 7.6 66 0 1019.9
Sant'Anna di Vinadio 02-06-2020 03:40 7.6 66 0 1019.8
Sant'Anna di Vinadio 02-06-2020 03:50 7.5 66 0 1019.7
Sant'Anna di Vinadio 02-06-2020 04:00 7.6 66 0 1019.6
Sant'Anna di Vinadio 02-06-2020 04:10 7.6 66 0 1019.6
Sant'Anna di Vinadio 02-06-2020 04:20 7.6 66 0 1019.5
Sant'Anna di Vinadio 02-06-2020 04:30 7.5 67 0 1019.5
Sant'Anna di Vinadio 02-06-2020 04:40 7.3 69 0 1019.4
Sant'Anna di Vinadio 02-06-2020 04:50 7.1 70 0 1019.3
Sant'Anna di Vinadio 02-06-2020 05:00 7 71 0 1019.3
Sant'Anna di Vinadio 02-06-2020 05:10 7 71 0 1019.2
Sant'Anna di Vinadio 02-06-2020 05:20 7.1 70 0 1019.2
Sant'Anna di Vinadio 02-06-2020 05:30 7.2 70 0 1019.2
Sant'Anna di Vinadio 02-06-2020 05:40 7.2 71 0 1019.2
Sant'Anna di Vinadio 02-06-2020 05:50 7.2 71 0 1019.2
Sant'Anna di Vinadio 02-06-2020 06:00 7.2 72 0 1019.2
Sant'Anna di Vinadio 02-06-2020 06:10 7.2 71 0 1019.1
Sant'Anna di Vinadio 02-06-2020 06:20 7.2 71 0 1019.1
Sant'Anna di Vinadio 02-06-2020 06:30 7.1 72 0 1019.1
Sant'Anna di Vinadio 02-06-2020 06:40 7.2 71 0 1019.1
Sant'Anna di Vinadio 02-06-2020 06:50 7.3 71 0 1019.1
Sant'Anna di Vinadio 02-06-2020 07:00 7.5 71 0 1019.1
Sant'Anna di Vinadio 02-06-2020 07:10 7.5 71 0 1019.1
Sant'Anna di Vinadio 02-06-2020 07:20 7.4 70 0 1019.1
Sant'Anna di Vinadio 02-06-2020 07:30 7.6 70 0 1019
Sant'Anna di Vinadio 02-06-2020 07:40 7.6 70 0 1019
Sant'Anna di Vinadio 02-06-2020 07:50 7.6 70 0 1019
Sant'Anna di Vinadio 02-06-2020 08:00 7.8 70 0 1019
Sant'Anna di Vinadio 02-06-2020 08:10 7.8 70 0 1019
Sant'Anna di Vinadio 02-06-2020 08:20 8 72 0 1018.9
Sant'Anna di Vinadio 02-06-2020 08:30 8.4 72 0 1018.9
Sant'Anna di Vinadio 02-06-2020 08:40 8.6 72 0 1018.9
Sant'Anna di Vinadio 02-06-2020 08:50 8.9 71 0 1018.9
Sant'Anna di Vinadio 02-06-2020 09:00 8.9 71 0 1018.9
Sant'Anna di Vinadio 02-06-2020 09:10 9.3 69 0 1018.9
Sant'Anna di Vinadio 02-06-2020 09:20 10 68 0 1018.9
Sant'Anna di Vinadio 02-06-2020 09:30 10.3 64 0 1018.9
Sant'Anna di Vinadio 02-06-2020 09:40 10.4 64 0 1018.9
Sant'Anna di Vinadio 02-06-2020 09:50 10.4 62 0 1018.8
Sant'Anna di Vinadio 02-06-2020 10:00 10.1 60 0 1018.8
Sant'Anna di Vinadio 02-06-2020 10:10 10.2 60 0 1018.7
Sant'Anna di Vinadio 02-06-2020 10:20 10.2 62 0 1018.7
Sant'Anna di Vinadio 02-06-2020 10:30 10.2 61 0 1018.7
Sant'Anna di Vinadio 02-06-2020 10:40 10.6 63 0 1018.7
Sant'Anna di Vinadio 02-06-2020 10:50 11.1 61 0 1018.7
Sant'Anna di Vinadio 02-06-2020 11:00 10.4 60 0 1018.7
Sant'Anna di Vinadio 02-06-2020 11:10 10.1 62 0 1018.7
Sant'Anna di Vinadio 02-06-2020 11:20 10.4 59 0 1018.7
Sant'Anna di Vinadio 02-06-2020 11:30 10.8 58 0 1018.7
Sant'Anna di Vinadio 02-06-2020 11:40 11.7 58 0 1018.6
Sant'Anna di Vinadio 02-06-2020 11:50 12.1 55 0 1018.7
Sant'Anna di Vinadio 02-06-2020 12:00 12.4 54 0 1018.6
Sant'Anna di Vinadio 02-06-2020 12:10 12.3 52 0 1018.6
Sant'Anna di Vinadio 02-06-2020 12:20 12.4 52 0 1018.6
Sant'Anna di Vinadio 02-06-2020 12:30 12.2 53 0 1018.5
Sant'Anna di Vinadio 02-06-2020 12:40 12.2 53 0 1018.5
Sant'Anna di Vinadio 02-06-2020 12:50 12.5 53 0 1018.4
Sant'Anna di Vinadio 02-06-2020 13:00 11.9 57 0 1018.4
Sant'Anna di Vinadio 02-06-2020 13:10 11.3 58 0 1018.4
Sant'Anna di Vinadio 02-06-2020 13:20 12.3 57 0 1018.3
Sant'Anna di Vinadio 02-06-2020 13:30 12.6 51 0 1018.3
Sant'Anna di Vinadio 02-06-2020 13:40 12.9 53 0 1018.3
Sant'Anna di Vinadio 02-06-2020 13:50 13.1 52 0 1018.3
Sant'Anna di Vinadio 02-06-2020 14:00 13 54 0 1018.2
Sant'Anna di Vinadio 02-06-2020 14:10 13.3 56 0 1018.1
Sant'Anna di Vinadio 02-06-2020 14:20 12.9 54 0 1018.1
Sant'Anna di Vinadio 02-06-2020 14:30 13.3 54 0 1018
Sant'Anna di Vinadio 02-06-2020 14:40 13.6 53 0 1017.9
Sant'Anna di Vinadio 02-06-2020 14:50 13.4 53 0 1017.8
Sant'Anna di Vinadio 02-06-2020 15:00 14 54 0 1017.7
Sant'Anna di Vinadio 02-06-2020 15:10 14.4 52 0 1017.7
Sant'Anna di Vinadio 02-06-2020 15:20 13.5 54 0 1017.7
Sant'Anna di Vinadio 02-06-2020 15:30 13.5 53 0 1017.7
Sant'Anna di Vinadio 02-06-2020 15:40 13.1 53 0 1017.7
Sant'Anna di Vinadio 02-06-2020 15:50 12.9 55 0 1017.7
Sant'Anna di Vinadio 02-06-2020 16:00 12.3 58 0 1017.6
Sant'Anna di Vinadio 02-06-2020 16:10 12.2 57 0 1017.6
Sant'Anna di Vinadio 02-06-2020 16:20 12.6 56 0 1017.5
Sant'Anna di Vinadio 02-06-2020 16:30 12.5 59 0 1017.4
Sant'Anna di Vinadio 02-06-2020 16:40 11.9 61 0 1017.4
Sant'Anna di Vinadio 02-06-2020 16:50 11.3 64 0 1017.5
Sant'Anna di Vinadio 02-06-2020 17:00 10.9 68 0 1017.5
Sant'Anna di Vinadio 02-06-2020 17:10 10.1 69 0 1017.6
Sant'Anna di Vinadio 02-06-2020 17:20 10 68 0 1017.7
Sant'Anna di Vinadio 02-06-2020 17:30 9.4 66 0 1017.8
Sant'Anna di Vinadio 02-06-2020 17:40 9.5 63 0 1017.8
Sant'Anna di Vinadio 02-06-2020 17:50 9.6 58 0 1017.8
Sant'Anna di Vinadio 02-06-2020 18:00 9.7 56 0 1017.8
Sant'Anna di Vinadio 02-06-2020 18:10 9.8 54 0 1017.7
Sant'Anna di Vinadio 02-06-2020 18:20 9.5 54 0 1017.5
Sant'Anna di Vinadio 02-06-2020 18:30 9.6 54 0 1017.5
Sant'Anna di Vinadio 02-06-2020 18:40 9.4 55 0 1017.5
Sant'Anna di Vinadio 02-06-2020 18:50 9.4 54 0 1017.5
Sant'Anna di Vinadio 02-06-2020 19:00 9.4 54 0 1017.3
Sant'Anna di Vinadio 02-06-2020 19:10 9.4 56 0 1017.3
Sant'Anna di Vinadio 02-06-2020 19:20 9.1 57 0 1017.2
Sant'Anna di Vinadio 02-06-2020 19:30 9.1 58 0 1017.1
Sant'Anna di Vinadio 02-06-2020 19:40 8.9 59 0 1017.1
Sant'Anna di Vinadio 02-06-2020 19:50 9 59 0 1017.2
Sant'Anna di Vinadio 02-06-2020 20:00 9 58 0 1017.1
Sant'Anna di Vinadio 02-06-2020 20:10 9 58 0 1017.1
Sant'Anna di Vinadio 02-06-2020 20:20 8.9 58 0 1017
Sant'Anna di Vinadio 02-06-2020 20:30 9 58 0 1016.9
Sant'Anna di Vinadio 02-06-2020 20:40 9.3 57 0 1016.9
Sant'Anna di Vinadio 02-06-2020 20:50 9.4 57 0 1016.8
Sant'Anna di Vinadio 02-06-2020 21:00 9.1 58 0 1016.9
Sant'Anna di Vinadio 02-06-2020 21:10 9.4 56 0 1017
Sant'Anna di Vinadio 02-06-2020 21:20 9.6 54 0 1017
Sant'Anna di Vinadio 02-06-2020 21:30 9.6 54 0 1017.1
Sant'Anna di Vinadio 02-06-2020 21:40 9.8 54 0 1017.1
Sant'Anna di Vinadio 02-06-2020 21:50 9.8 54 0 1017.2
Sant'Anna di Vinadio 02-06-2020 22:00 9.8 54 0 1017.2
Sant'Anna di Vinadio 02-06-2020 22:10 9.8 54 0 1017.1
Sant'Anna di Vinadio 02-06-2020 22:20 10.1 53 0 1017.3
Sant'Anna di Vinadio 02-06-2020 22:30 10.1 52 0 1017.3
Sant'Anna di Vinadio 02-06-2020 22:40 10.1 53 0 1017.3
Sant'Anna di Vinadio 02-06-2020 22:50 10.2 51 0 1017.4
Sant'Anna di Vinadio 02-06-2020 23:00 10.2 51 0 1017.4
Sant'Anna di Vinadio 02-06-2020 23:10 10.2 51 0 1017.4
Sant'Anna di Vinadio 02-06-2020 23:20 9.9 50 0 1017.3
Sant'Anna di Vinadio 02-06-2020 23:30 9.7 49 0 1017.2
Sant'Anna di Vinadio 02-06-2020 23:40 9.6 47 0 1017.2
Sant'Anna di Vinadio 02-06-2020 23:50 9.6 47 0 1017.2
Sant'Anna di Vinadio 03-06-2020 00:00 9.6 47 0 1017.1
Sant'Anna di Vinadio 03-06-2020 00:10 9.6 46 0 1017.1
Sant'Anna di Vinadio 03-06-2020 00:20 9.4 47 0 1017.1
Sant'Anna di Vinadio 03-06-2020 00:30 9.3 48 0 1017.1
Sant'Anna di Vinadio 03-06-2020 00:40 9.2 48 0 1017.1
Sant'Anna di Vinadio 03-06-2020 00:50 9 49 0 1017.1
Sant'Anna di Vinadio 03-06-2020 01:00 8.9 51 0 1017
Sant'Anna di Vinadio 03-06-2020 01:10 8.7 52 0 1017.1
Sant'Anna di Vinadio 03-06-2020 01:20 8.9 53 0 1017
Sant'Anna di Vinadio 03-06-2020 01:30 8.6 55 0 1017
Sant'Anna di Vinadio 03-06-2020 01:40 8.5 56 0 1017
Sant'Anna di Vinadio 03-06-2020 01:50 8.4 59 0 1016.8
Sant'Anna di Vinadio 03-06-2020 02:00 8.1 59 0 1016.8
Sant'Anna di Vinadio 03-06-2020 02:10 8 60 0 1017
Sant'Anna di Vinadio 03-06-2020 02:20 7.6 64 0 1017
Sant'Anna di Vinadio 03-06-2020 02:30 7.1 66 0 1017
Sant'Anna di Vinadio 03-06-2020 02:40 6.8 68 0 1016.8
Sant'Anna di Vinadio 03-06-2020 02:50 6.4 69 0 1016.7
Sant'Anna di Vinadio 03-06-2020 03:00 6.2 70 0 1016.6
Sant'Anna di Vinadio 03-06-2020 03:10 6.3 70 0 1016.4
Sant'Anna di Vinadio 03-06-2020 03:20 6.2 70 0 1016.3
Sant'Anna di Vinadio 03-06-2020 03:30 6.4 70 0 1016.2
Sant'Anna di Vinadio 03-06-2020 03:40 6.5 70 0 1016
Sant'Anna di Vinadio 03-06-2020 03:50 6.7 68 0 1015.8
Sant'Anna di Vinadio 03-06-2020 04:00 6.9 66 0 1015.7
Sant'Anna di Vinadio 03-06-2020 04:10 7.2 66 0 1015.5
Sant'Anna di Vinadio 03-06-2020 04:20 7.6 64 0 1015.4
Sant'Anna di Vinadio 03-06-2020 04:30 8.4 59 0 1015.2
Sant'Anna di Vinadio 03-06-2020 04:40 8.5 55 0 1015.1
Sant'Anna di Vinadio 03-06-2020 04:50 8.6 54 0 1015
Sant'Anna di Vinadio 03-06-2020 05:00 8.7 52 0 1014.9
Sant'Anna di Vinadio 03-06-2020 05:10 8.7 52 0 1014.9
Sant'Anna di Vinadio 03-06-2020 05:20 8.6 52 0 1014.9
Sant'Anna di Vinadio 03-06-2020 05:30 8.8 51 0 1014.8
Sant'Anna di Vinadio 03-06-2020 05:40 8.9 50 0 1014.7
Sant'Anna di Vinadio 03-06-2020 05:50 8.9 52 0 1014.7
Sant'Anna di Vinadio 03-06-2020 06:00 8.6 53 0 1014.7
Sant'Anna di Vinadio 03-06-2020 06:10 8.5 52 0 1014.7
Sant'Anna di Vinadio 03-06-2020 06:20 8.6 53 0 1014.6
Sant'Anna di Vinadio 03-06-2020 06:30 8.6 52 0 1014.6
Sant'Anna di Vinadio 03-06-2020 06:40 8.6 52 0 1014.6
Sant'Anna di Vinadio 03-06-2020 06:50 8.7 52 0 1014.6
Sant'Anna di Vinadio 03-06-2020 07:00 8.8 52 0 1014.6
Sant'Anna di Vinadio 03-06-2020 07:10 8.7 52 0 1014.6
Sant'Anna di Vinadio 03-06-2020 07:20 9.3 53 0 1014.6
Sant'Anna di Vinadio 03-06-2020 07:30 9.7 52 0 1014.6
Sant'Anna di Vinadio 03-06-2020 07:40 10 52 0 1014.5
Sant'Anna di Vinadio 03-06-2020 07:50 10.2 53 0 1014.5
Sant'Anna di Vinadio 03-06-2020 08:00 10.3 52 0 1014.5
Sant'Anna di Vinadio 03-06-2020 08:10 10.6 52 0 1014.4
Sant'Anna di Vinadio 03-06-2020 08:20 10.7 50 0 1014.4
Sant'Anna di Vinadio 03-06-2020 08:30 10.9 49 0 1014.3
Sant'Anna di Vinadio 03-06-2020 08:40 11.3 47 0 1014.3
Sant'Anna di Vinadio 03-06-2020 08:50 11.3 46 0 1014.3
Sant'Anna di Vinadio 03-06-2020 09:00 11.1 46 0 1014.3
Sant'Anna di Vinadio 03-06-2020 09:10 11.1 44 0 1014.2
Sant'Anna di Vinadio 03-06-2020 09:20 11.2 44 0 1014.2
Sant'Anna di Vinadio 03-06-2020 09:30 11.7 47 0 1014.3
Sant'Anna di Vinadio 03-06-2020 09:40 11.8 48 0 1014.2
Sant'Anna di Vinadio 03-06-2020 09:50 11.8 48 0 1014.1
Sant'Anna di Vinadio 03-06-2020 10:00 11.8 48 0 1014.1
Sant'Anna di Vinadio 03-06-2020 10:10 11.7 50 0 1014.1
Sant'Anna di Vinadio 03-06-2020 10:20 11.9 49 0 1014.1
Sant'Anna di Vinadio 03-06-2020 10:30 11.9 49 0 1014.1
Sant'Anna di Vinadio 03-06-2020 10:40 12 52 0 1014
Sant'Anna di Vinadio 03-06-2020 10:50 11.8 52 0 1014
Sant'Anna di Vinadio 03-06-2020 11:00 11.9 54 0 1014
Sant'Anna di Vinadio 03-06-2020 11:10 11.7 55 0 1014
Sant'Anna di Vinadio 03-06-2020 11:20 12.2 54 0 1013.9
Sant'Anna di Vinadio 03-06-2020 11:30 12.2 54 0 1013.9
Sant'Anna di Vinadio 03-06-2020 11:40 12.2 53 0 1013.8
Sant'Anna di Vinadio 03-06-2020 11:50 12.2 54 0 1013.8
Sant'Anna di Vinadio 03-06-2020 12:00 12.3 54 0 1013.8
Sant'Anna di Vinadio 03-06-2020 12:10 12.8 54 0 1013.8
Sant'Anna di Vinadio 03-06-2020 12:20 12.8 51 0 1013.7
Sant'Anna di Vinadio 03-06-2020 12:30 12.6 51 0 1013.7
Sant'Anna di Vinadio 03-06-2020 12:40 12.6 53 0 1013.7
Sant'Anna di Vinadio 03-06-2020 12:50 12.9 54 0 1013.6
Sant'Anna di Vinadio 03-06-2020 13:00 13.3 51 0 1013.6
Sant'Anna di Vinadio 03-06-2020 13:10 13.3 51 0 1013.6
Sant'Anna di Vinadio 03-06-2020 13:20 13.9 52 0 1013.5
Sant'Anna di Vinadio 03-06-2020 13:30 12.9 50 0 1013.3
Sant'Anna di Vinadio 03-06-2020 13:40 12.7 52 0 1013.3
Sant'Anna di Vinadio 03-06-2020 13:50 12.4 57 0 1013.3
Sant'Anna di Vinadio 03-06-2020 14:00 12.3 57 0 1013.2
Sant'Anna di Vinadio 03-06-2020 14:10 12 59 0 1013.1
Sant'Anna di Vinadio 03-06-2020 14:20 11.8 59 0 1013
Sant'Anna di Vinadio 03-06-2020 14:30 11.4 60 0 1013
Sant'Anna di Vinadio 03-06-2020 14:40 11.6 60 0.1 1012.8
Sant'Anna di Vinadio 03-06-2020 14:50 11.5 64 0.2 1012.8
Sant'Anna di Vinadio 03-06-2020 15:00 10.9 66 0 1012.9
Sant'Anna di Vinadio 03-06-2020 15:10 10.5 64 0 1012.8
Sant'Anna di Vinadio 03-06-2020 15:20 9.4 66 0 1013
Sant'Anna di Vinadio 03-06-2020 15:30 9.4 64 0 1012.8
Sant'Anna di Vinadio 03-06-2020 15:40 9.3 66 0 1012.7
Sant'Anna di Vinadio 03-06-2020 15:50 8.8 71 0 1012.6
Sant'Anna di Vinadio 03-06-2020 16:00 8.3 72 0.6 1012.6
Sant'Anna di Vinadio 03-06-2020 16:10 8.1 74 1.1 1012.7
Sant'Anna di Vinadio 03-06-2020 16:20 7.7 78 1.6 1012.7
Sant'Anna di Vinadio 03-06-2020 16:30 7.5 81 1 1012.6
Sant'Anna di Vinadio 03-06-2020 16:40 7.3 86 0.2 1012.3
Sant'Anna di Vinadio 03-06-2020 16:50 7.8 86 0 1012.1
Sant'Anna di Vinadio 03-06-2020 17:00 8.5 78 0 1012.4
Sant'Anna di Vinadio 03-06-2020 17:10 8.3 78 0 1012.4
Sant'Anna di Vinadio 03-06-2020 17:20 7.8 77 0 1012.7
Sant'Anna di Vinadio 03-06-2020 17:30 7.4 74 0.2 1012.8
Sant'Anna di Vinadio 03-06-2020 17:40 6.8 76 0.8 1012.7
Sant'Anna di Vinadio 03-06-2020 17:50 6.6 76 0.6 1012.6
Sant'Anna di Vinadio 03-06-2020 18:00 6.8 77 0.1 1012.4
Sant'Anna di Vinadio 03-06-2020 18:10 6.9 75 0 1012.3
Sant'Anna di Vinadio 03-06-2020 18:20 6.9 78 0.4 1012.1
Sant'Anna di Vinadio 03-06-2020 18:30 6.8 79 0.4 1012
Sant'Anna di Vinadio 03-06-2020 18:40 6.7 78 0.4 1011.9

Riassuntivo giornaliero del 03-06-2020